Temp
62 62 62 62 61 61 60 61 61 60 60 60 60 60 60 60 60 60 60 60 60 60 60 60 61 61 60 63 71 83 79 80 83 85 82 79 75 76 71 73 75 72 77 81 83 85 85
62 61 61 61 61 60 60 60 60 60 60 60 60 59 59 59 60 60 60 60 59 59 60 60 61 61 58 62 85 84 83 82 83 83 83 82 79 80 77 75 75 79 78 80 84 85 85
61 61 61 61 60 60 60 60 60 59 59 59 59 59 59 59 59 60 59 59 58 59 60 60 62 61 58 72 83 84 83 82 84 85 81 85 85 81 80 75 82 81 76 82 83 84 83
61 61 60 60 60 59 59 59 59 59 58 58 59 59 59 59 59 59 58 57 59 61 61 61 62 61 63 78 82 79 82 79 84 87 86 87 86 84 79 82 79 77 76 73 82 83 85
60 60 60 60 59 59 58 58 58 58 58 58 58 58 58 58 58 58 56 57 61 64 64 63 59 57 66 76 74 83 84 79 79 83 84 88 85 79 78 74 71 73 70 71 75 85 83
60 60 60 60 59 59 58 58 58 58 58 58 58 58 58 58 57 56 56 57 61 63 64 65 64 58 69 74 78 78 85 82 77 78 76 78 77 72 73 71 62 65 67 72 72 81 81
60 60 59 59 59 58 58 58 58 58 58 58 57 57 57 56 56 55 57 64 63 61 61 63 64 65 71 81 83 78 83 81 80 76 68 74 68 64 70 72 73 72 72 72 75 81 78
59 59 59 59 58 58 58 58 57 57 57 57 57 57 56 56 55 55 60 61 56 57 50 64 61 64 71 74 72 76 84 75 73 67 73 67 64 73 75 72 71 71 70 71 75 80 78
59 59 58 58 58 58 58 57 57 57 57 57 57 56 56 55 54 56 55 57 62 60 50 60 64 66 70 73 68 74 80 79 73 69 68 67 71 76 71 69 67 69 69 71 71 77 79
59 58 58 58 58 57 57 57 57 57 56 56 56 56 55 54 57 54 58 59 60 58 51 61 63 68 70 74 67 81 83 80 74 69 70 71 77 72 69 68 71 65 74 73 71 70 66
58 58 58 58 58 57 57 57 56 56 56 56 56 55 54 53 52 53 60 60 60 56 47 66 65 78 73 72 73 72 83 79 72 72 71 68 70 68 66 70 73 69 76 73 73 71 71
59 58 58 58 58 57 57 56 56 56 56 56 55 55 54 53 53 57 58 57 57 51 44 62 68 66 65 69 71 72 74 82 81 73 75 75 77 76 73 75 75 78 72 73 71 71 59
58 58 58 58 57 57 56 56 56 56 56 55 54 53 53 56 55 61 57 57 50 44 62 56 58 62 62 63 67 68 67 68 67 62 62 70 70 76 79 71 75 74 70 60 57 58 58
58 58 57 57 57 56 56 56 56 56 55 54 52 51 53 57 60 58 57 54 41 51 51 59 59 60 58 60 62 63 65 64 73 73 68 61 58 71 77 74 69 69 71 62 52 57 63
58 58 57 57 57 56 57 56 56 56 55 53 52 54 56 60 60 58 55 43 44 47 49 49 55 53 54 57 57 59 63 66 71 73 65 63 64 74 76 78 77 69 65 76 66 62 61
58 58 57 57 57 57 57 56 56 56 55 53 50 47 54 60 58 57 50 40 44 50 51 53 46 51 47 52 55 56 58 56 62 65 65 68 61 73 75 79 79 73 77 62 66 53 53
58 57 57 57 57 57 57 57 56 55 54 51 49 48 59 59 59 53 41 40 44 51 52 50 48 47 50 48 52 53 51 56 58 59 63 64 65 64 73 70 69 68 67 70 71 66 59
57 57 57 57 57 57 57 57 55 54 52 50 46 45 58 58 46 45 41 42 46 49 52 49 52 50 49 50 50 51 49 53 59 60 55 58 64 62 65 77 80 76 71 71 63 58 64
57 57 57 57 57 57 57 56 55 53 52 49 41 40 56 58 36 38 42 42 46 46 46 45 45 49 51 49 46 50 51 57 59 59 54 59 56 57 61 69 72 70 74 73 74 72 61
57 57 58 57 57 57 57 56 54 53 53 52 44 40 48 48 46 38 36 39 40 49 46 44 44 49 47 47 50 46 49 54 57 58 58 58 55 56 58 62 61 60 67 72 72 65 64
57 57 57 57 58 58 57 56 55 54 53 52 43 40 43 37 42 41 41 39 38 39 46 47 37 38 38 40 45 45 48 51 55 55 57 57 50 53 55 57 58 58 60 63 64 69 65
57 57 57 57 57 57 57 57 56 54 52 48 42 41 42 38 42 40 41 38 38 41 40 41 35 38 37 37 42 40 44 47 46 53 52 55 50 51 51 57 59 56 61 62 63 65 66
57 57 57 57 57 57 57 57 56 54 51 47 49 49 40 38 37 36 40 40 40 42 44 45 39 40 39 40 47 50 52 52 51 47 47 49 50 49 46 54 55 52 60 63 65 68 69
56 57 57 57 57 57 57 57 57 56 52 49 47 45 38 34 35 39 40 42 41 42 37 44 46 42 48 53 54 55 51 50 50 51 52 47 46 50 47 50 41 62 68 68 67 71 74
56 57 57 57 57 57 57 57 57 56 55 49 49 44 40 34 40 41 42 42 44 44 42 42 47 50 53 49 44 41 45 44 47 50 51 51 48 46 44 47 54 58 64 64 62 66 71
56 56 56 57 57 57 57 57 58 57 55 50 49 49 44 36 37 44 40 42 38 38 40 43 51 53 49 47 40 33 37 40 41 46 51 51 49 46 46 42 41 58 68 70 65 56 66
56 56 56 56 57 57 57 58 58 58 55 50 48 50 45 37 42 45 37 37 42 38 37 41 43 46 48 41 36 31 35 43 38 40 41 41 42 39 42 42 51 63 65 66 54 61 66
55 55 56 56 56 56 57 57 57 58 57 52 47 48 46 40 42 46 47 39 41 41 34 42 41 40 40 34 34 37 36 41 37 45 44 42 38 38 42 40 38 65 67 58 64 66 67
55 55 55 55 56 56 56 57 57 57 56 55 47 47 48 42 42 52 53 54 51 51 44 41 42 41 42 36 35 35 35 39 38 32 49 39 46 44 46 48 59 63 62 70 68 64 67
MSLP
1024.01 1023.69 1023.35 1023.03 1022.69 1022.29 1021.86 1021.40 1020.95 1020.54 1020.06 1019.51 1018.97 1018.42 1017.83 1017.19 1016.49 1015.70 1014.91 1014.24 1013.60 1013.16 1012.95 1012.88 1012.86 1012.88 1012.64 1011.14 1007.16 1005.09 1005.07 1005.81 1006.44 1006.58 1006.56 1007.04 1007.60 1007.81 1007.98 1008.21 1008.28 1007.85 1006.85 1006.42 1006.00 1005.73 1005.60
1024.34 1024.00 1023.64 1023.26 1022.89 1022.48 1022.03 1021.53 1021.04 1020.51 1019.99 1019.43 1018.84 1018.23 1017.61 1016.92 1016.10 1015.24 1014.46 1013.67 1012.92 1012.30 1011.98 1012.18 1012.41 1012.67 1012.26 1009.29 1005.12 1005.01 1005.20 1005.68 1005.67 1006.12 1006.34 1006.67 1006.87 1007.38 1007.54 1007.48 1007.23 1006.69 1006.46 1006.07 1005.58 1005.25 1005.22
1024.52 1024.20 1023.85 1023.46 1023.07 1022.66 1022.21 1021.69 1021.19 1020.69 1020.08 1019.40 1018.70 1018.02 1017.36 1016.65 1015.69 1014.63 1013.76 1012.99 1011.99 1011.00 1010.72 1011.16 1011.70 1012.20 1010.97 1006.25 1004.94 1004.81 1005.15 1005.28 1005.19 1005.40 1005.65 1006.15 1006.62 1006.83 1006.91 1006.88 1006.62 1006.29 1005.72 1005.00 1004.53 1004.53 1004.32
1024.73 1024.41 1024.09 1023.71 1023.28 1022.81 1022.31 1021.76 1021.19 1020.60 1020.00 1019.33 1018.59 1017.80 1017.06 1016.28 1015.22 1014.07 1013.19 1012.28 1011.00 1009.75 1009.53 1010.16 1010.96 1011.50 1008.48 1005.02 1005.03 1005.17 1005.16 1005.46 1005.81 1006.01 1006.12 1006.64 1006.68 1006.56 1006.69 1006.45 1006.18 1005.65 1005.27 1004.15 1003.40 1003.43 1003.54
1024.91 1024.60 1024.25 1023.87 1023.44 1023.00 1022.45 1021.85 1021.24 1020.61 1019.90 1019.21 1018.44 1017.55 1016.75 1015.88 1014.68 1013.35 1012.50 1011.76 1010.85 1009.77 1009.45 1010.14 1010.93 1010.59 1006.64 1004.87 1004.70 1004.19 1004.69 1004.82 1005.62 1006.32 1006.51 1006.63 1006.95 1006.55 1006.58 1006.27 1005.90 1005.48 1004.41 1003.90 1003.36 1002.93 1003.08
1025.10 1024.74 1024.39 1023.99 1023.55 1023.09 1022.58 1021.97 1021.32 1020.61 1019.85 1019.10 1018.32 1017.44 1016.50 1015.53 1014.37 1012.99 1011.81 1011.11 1010.79 1010.52 1010.56 1010.39 1010.23 1010.16 1005.63 1003.64 1003.20 1003.59 1004.16 1004.72 1005.29 1006.02 1006.66 1006.53 1006.50 1006.18 1005.95 1005.59 1004.45 1004.82 1004.60 1003.98 1003.11 1002.76 1002.76
1025.29 1024.93 1024.52 1024.08 1023.65 1023.13 1022.59 1022.02 1021.29 1020.54 1019.70 1019.00 1018.28 1017.42 1016.48 1015.14 1014.19 1013.03 1011.67 1010.90 1010.88 1010.68 1010.02 1008.33 1007.59 1006.06 1004.29 1003.04 1002.78 1003.15 1003.49 1004.21 1004.79 1005.45 1005.25 1005.62 1005.57 1003.92 1004.80 1005.40 1005.24 1004.96 1004.38 1003.60 1003.20 1002.93 1002.74
1025.42 1025.06 1024.60 1024.13 1023.67 1023.16 1022.62 1022.01 1021.28 1020.48 1019.53 1018.83 1018.21 1017.30 1016.33 1015.00 1014.06 1012.97 1011.99 1011.95 1013.36 1013.77 1010.57 1007.23 1006.27 1005.65 1004.38 1004.11 1002.83 1002.88 1003.09 1003.17 1003.70 1003.85 1004.59 1005.21 1003.25 1004.06 1004.87 1005.39 1005.17 1004.84 1004.20 1003.46 1003.52 1003.03 1002.86
1025.50 1025.11 1024.66 1024.19 1023.71 1023.19 1022.62 1022.03 1021.34 1020.51 1019.59 1018.77 1018.32 1017.36 1016.17 1015.09 1013.86 1013.39 1013.38 1013.54 1014.02 1013.49 1011.52 1005.80 1004.59 1003.67 1003.09 1003.56 1002.79 1001.80 1002.05 1001.80 1002.03 1002.72 1002.82 1002.25 1002.36 1003.67 1004.29 1004.59 1004.60 1004.10 1003.53 1003.36 1003.21 1002.95 1002.69
1025.58 1025.15 1024.71 1024.23 1023.67 1023.05 1022.42 1021.85 1021.20 1020.42 1019.53 1018.72 1018.22 1017.43 1016.27 1015.29 1014.04 1014.27 1013.57 1013.78 1013.80 1013.51 1010.71 1005.11 1003.35 1001.93 1002.07 1002.05 1001.49 1001.05 1001.09 1000.82 1001.22 1001.02 1002.09 1002.14 1002.48 1002.70 1003.15 1003.16 1003.72 1003.12 1003.56 1003.79 1003.62 1003.42 1002.31
1025.59 1025.15 1024.67 1024.19 1023.65 1023.05 1022.43 1021.82 1021.19 1020.44 1019.47 1018.61 1018.04 1017.45 1016.37 1015.81 1015.53 1014.68 1013.88 1013.56 1013.28 1013.11 1008.68 1003.05 1002.03 1001.47 1001.32 1001.00 1000.24 999.86 1000.08 1000.15 999.66 999.87 1000.96 1000.15 1001.02 1001.90 1002.19 1001.69 1003.10 1002.69 1003.44 1003.53 1003.49 1003.09 1002.78
1025.62 1025.19 1024.72 1024.22 1023.68 1023.09 1022.45 1021.80 1021.16 1020.45 1019.52 1018.61 1017.79 1017.13 1016.33 1015.90 1015.57 1014.41 1013.84 1013.39 1012.74 1011.13 1005.89 1002.27 1001.48 1001.21 1001.29 1000.76 1000.03 999.94 999.62 999.73 999.67 1000.00 999.96 999.96 1000.72 1001.10 1000.94 1001.71 1002.17 1002.79 1003.21 1003.28 1003.50 1003.05 1001.84
1025.64 1025.20 1024.74 1024.20 1023.60 1022.97 1022.35 1021.75 1021.09 1020.38 1019.45 1018.49 1017.58 1016.57 1016.14 1015.80 1014.90 1014.03 1013.62 1012.55 1011.46 1008.60 1004.46 1003.50 1002.50 1001.97 1001.50 1000.65 1000.03 999.66 999.11 998.69 998.05 998.70 998.95 999.80 1000.02 1000.12 1000.37 1001.02 1001.73 1002.08 1002.13 1002.39 1002.68 1001.79 999.56
1025.59 1025.11 1024.62 1024.04 1023.49 1022.95 1022.37 1021.72 1021.01 1020.24 1019.39 1018.38 1017.25 1016.29 1015.87 1015.40 1014.79 1014.26 1013.08 1011.87 1009.78 1007.51 1006.28 1005.04 1003.89 1002.77 1001.76 1001.37 1000.50 999.91 999.25 998.72 998.30 997.94 998.08 998.51 999.13 998.77 998.85 999.00 999.73 1000.49 1000.86 1000.25 1000.11 999.63 999.85
1025.65 1025.09 1024.52 1023.98 1023.44 1022.88 1022.25 1021.67 1020.98 1020.23 1019.40 1018.31 1017.07 1016.20 1015.69 1015.12 1014.58 1014.04 1012.99 1011.48 1009.92 1009.29 1008.81 1007.15 1004.98 1003.68 1002.65 1002.25 1001.86 1000.74 999.96 999.30 998.88 998.43 998.00 997.95 997.53 997.61 998.05 998.46 999.10 999.88 999.61 999.89 1000.18 1000.73 999.86
1025.57 1025.06 1024.54 1024.00 1023.41 1022.85 1022.24 1021.63 1020.88 1020.18 1019.41 1018.55 1017.72 1017.11 1015.86 1015.24 1014.65 1013.95 1012.95 1012.10 1011.38 1010.95 1009.89 1008.28 1006.89 1005.72 1004.41 1003.59 1002.67 1001.84 1001.38 1002.18 1000.56 1000.28 999.86 998.41 997.76 997.19 997.38 997.99 998.20 998.38 999.50 1000.16 1000.00 999.42 998.58
1025.55 1025.09 1024.59 1024.02 1023.43 1022.83 1022.20 1021.57 1020.87 1020.21 1019.42 1018.63 1018.19 1016.90 1015.69 1014.97 1014.44 1013.97 1013.82 1013.62 1012.69 1011.99 1011.11 1009.54 1008.26 1007.37 1006.19 1005.28 1004.23 1003.42 1003.52 1003.64 1002.93 1001.79 1000.75 999.70 998.52 997.89 997.38 996.34 996.48 998.05 997.94 998.15 998.54 998.30 997.12
1025.44 1025.05 1024.49 1023.89 1023.32 1022.79 1022.09 1021.52 1020.99 1020.34 1019.62 1019.03 1018.78 1017.31 1016.35 1015.44 1015.04 1015.67 1015.24 1014.97 1013.72 1012.44 1011.84 1010.78 1009.65 1008.65 1007.66 1006.72 1005.53 1004.84 1004.64 1004.75 1004.38 1003.29 1001.97 1001.43 999.75 997.98 997.04 996.58 996.63 997.00 996.99 997.49 997.32 997.43 997.10
1025.47 1024.86 1024.40 1023.89 1023.26 1022.67 1022.20 1021.64 1021.13 1020.61 1020.23 1019.91 1019.37 1018.70 1017.00 1016.23 1016.55 1016.73 1016.49 1015.46 1014.39 1013.29 1012.69 1011.97 1010.97 1010.23 1009.22 1008.09 1007.15 1006.45 1006.03 1005.99 1005.33 1004.22 1003.75 1002.70 1000.91 999.19 998.30 997.76 997.28 996.62 996.79 997.14 997.05 996.74 996.34
1025.37 1024.92 1024.43 1023.79 1023.34 1022.80 1022.20 1021.75 1021.24 1020.74 1020.43 1020.25 1019.82 1018.94 1017.94 1017.81 1018.20 1017.86 1017.13 1015.92 1014.93 1014.16 1013.53 1013.49 1012.67 1011.40 1010.45 1009.24 1008.46 1007.81 1007.28 1006.84 1006.39 1005.55 1004.85 1003.79 1002.20 1000.18 998.42 998.03 998.72 997.96 997.14 996.94 996.75 996.03 995.59
1025.30 1024.90 1024.36 1023.82 1023.23 1022.61 1022.17 1021.77 1021.33 1020.83 1020.46 1020.38 1020.32 1019.85 1019.62 1018.65 1017.99 1017.96 1017.51 1016.91 1015.72 1014.92 1014.56 1013.98 1013.71 1013.49 1012.77 1011.06 1009.59 1008.83 1008.51 1007.84 1007.14 1006.80 1005.66 1004.83 1003.42 1002.46 1001.36 1000.71 1000.07 999.20 998.33 997.76 996.76 995.96 994.81
1025.15 1024.72 1024.22 1023.72 1023.13 1022.53 1021.98 1021.54 1021.20 1020.91 1020.74 1020.62 1020.36 1020.03 1020.06 1019.40 1018.74 1018.10 1017.32 1016.68 1016.24 1015.70 1015.60 1014.59 1014.67 1014.26 1013.68 1012.50 1011.48 1010.61 1010.05 1009.11 1008.34 1007.73 1006.97 1006.23 1004.75 1003.89 1002.30 1001.35 1000.37 999.18 998.21 997.67 997.16 996.60 996.04
1024.91 1024.48 1024.01 1023.48 1022.98 1022.34 1021.82 1021.34 1020.90 1020.70 1020.78 1020.73 1020.38 1020.16 1020.09 1019.42 1018.84 1018.24 1017.16 1016.73 1016.29 1016.23 1015.45 1015.14 1015.12 1014.56 1013.51 1013.18 1012.26 1011.52 1010.87 1010.21 1009.62 1009.26 1008.24 1007.31 1005.93 1004.75 1003.09 1002.08 1000.61 998.54 996.80 996.93 996.79 996.63 996.08
1024.61 1024.04 1023.62 1023.18 1022.59 1022.11 1021.72 1021.12 1020.72 1020.48 1020.59 1020.70 1020.41 1020.32 1019.87 1019.03 1018.67 1017.70 1017.15 1016.90 1016.33 1016.04 1015.89 1015.10 1014.74 1014.10 1013.39 1013.05 1012.03 1010.82 1010.39 1009.87 1009.50 1008.79 1008.88 1007.90 1007.00 1005.62 1003.88 1002.94 1000.38 997.14 997.00 996.91 996.43 995.77 995.41
1024.17 1023.64 1023.18 1022.70 1022.02 1021.62 1021.22 1020.78 1020.28 1019.96 1019.85 1020.13 1020.01 1020.02 1019.52 1018.61 1018.01 1017.19 1016.72 1016.24 1016.05 1015.81 1015.54 1014.88 1014.23 1013.95 1013.67 1013.02 1011.86 1010.58 1009.59 1009.19 1008.31 1007.91 1008.05 1008.05 1007.49 1005.92 1004.20 1002.29 999.58 997.87 997.36 996.87 996.72 995.72 995.72
1023.64 1023.17 1022.68 1022.02 1021.42 1021.06 1020.52 1019.89 1019.45 1019.08 1018.96 1019.12 1019.19 1019.28 1019.23 1018.57 1017.24 1016.82 1016.50 1016.31 1015.90 1015.54 1015.15 1014.56 1014.06 1013.70 1013.52 1012.87 1012.34 1011.23 1009.65 1009.01 1008.03 1007.18 1007.32 1007.79 1007.86 1006.80 1004.71 1002.29 999.50 997.43 997.23 997.44 997.69 996.12 996.37
1023.09 1022.54 1022.08 1021.26 1020.76 1020.26 1019.61 1019.06 1018.51 1018.12 1017.91 1018.12 1017.89 1018.43 1018.50 1017.89 1016.77 1016.47 1016.17 1016.11 1015.88 1015.70 1015.19 1014.68 1014.36 1013.69 1013.57 1012.99 1012.50 1011.95 1010.68 1009.86 1008.48 1007.37 1007.29 1007.60 1007.45 1006.23 1004.97 1002.56 999.76 998.51 998.18 998.13 997.36 996.45 996.36
1022.54 1021.87 1021.37 1020.47 1020.05 1019.40 1018.84 1018.21 1017.64 1017.05 1016.62 1017.10 1016.91 1017.09 1017.56 1017.14 1015.90 1015.66 1015.49 1015.48 1015.25 1015.17 1015.07 1014.73 1014.67 1014.27 1013.86 1013.54 1013.00 1012.20 1011.27 1010.30 1009.50 1007.71 1006.96 1006.59 1006.30 1005.59 1004.98 1002.69 1000.46 999.15 998.29 997.72 997.12 996.53 996.64
1021.81 1021.16 1020.61 1019.75 1019.22 1018.53 1018.06 1017.32 1016.62 1015.90 1015.57 1015.69 1015.98 1016.32 1016.55 1016.61 1015.48 1014.71 1014.22 1014.02 1013.93 1013.82 1014.20 1014.52 1014.01 1013.70 1013.71 1013.71 1013.50 1012.89 1011.85 1010.73 1009.74 1008.34 1007.23 1006.54 1005.38 1004.48 1003.67 1001.05 1000.48 999.77 999.12 997.76 997.74 997.42 997.01
Wind_Speed
18 19 18 18 17 18 19 20 21 20 21 22 23 23 23 24 24 25 25 24 24 23 21 18 13 9 4 5 13 0 12 20 23 21 26 19 24 13 14 10 8 15 9 5 11 11 9
18 18 18 18 19 19 20 20 21 22 22 23 23 23 23 24 24 26 26 25 25 25 22 16 10 4 3 9 4 5 14 22 25 24 24 20 16 11 10 8 15 4 12 13 11 13 11
17 17 19 19 20 19 20 21 21 22 22 23 23 24 24 25 27 28 28 26 28 26 22 16 11 7 5 16 5 8 17 14 25 24 27 20 13 16 8 5 10 9 13 13 14 10 8
18 19 20 20 20 20 20 21 22 23 23 23 24 25 25 26 28 29 28 28 25 16 10 8 14 8 11 3 7 2 7 6 16 15 16 11 5 16 4 1 3 4 3 5 1 7 5
19 18 19 20 20 20 20 22 23 22 22 23 24 25 26 27 30 31 29 25 13 11 14 18 10 5 9 6 6 13 13 9 18 15 5 10 8 6 5 9 7 5 9 8 6 9 5
19 19 20 20 21 20 20 20 21 22 23 23 24 26 28 29 30 32 30 14 4 7 9 3 5 4 7 5 6 8 13 19 10 17 7 7 7 12 11 13 13 10 9 9 12 1 7
19 19 19 20 20 20 20 21 22 23 24 25 25 26 27 31 30 32 13 1 2 4 2 9 2 6 3 4 8 6 16 16 10 13 14 15 12 22 22 18 14 7 15 11 3 2 6
18 19 20 20 21 21 21 22 23 24 26 26 26 27 27 30 32 20 6 6 7 6 15 15 22 19 19 4 3 12 21 16 14 17 16 9 25 20 13 15 17 16 17 16 8 10 5
18 19 19 20 20 20 20 21 21 23 25 26 26 27 28 29 31 4 5 7 8 7 7 10 9 8 9 13 7 16 26 16 23 22 27 25 6 20 19 15 18 20 22 19 14 3 4
18 17 17 19 19 20 20 21 21 23 24 25 25 26 28 32 4 8 3 7 10 2 6 7 6 6 8 9 11 14 23 17 12 26 22 22 19 23 23 26 22 23 17 16 15 8 12
17 17 18 18 19 20 20 21 22 23 25 26 26 25 26 12 6 6 9 12 12 4 8 5 5 5 9 15 2 13 22 12 20 19 17 18 24 18 25 25 20 16 11 16 16 14 11
18 19 20 20 21 21 21 22 23 23 25 27 27 26 26 0 2 7 11 14 3 5 11 1 4 3 6 12 2 4 15 12 6 11 19 19 6 24 15 19 23 13 7 9 6 9 16
20 20 20 21 21 20 20 21 22 22 24 26 27 27 11 4 6 15 10 4 5 8 7 5 5 6 5 2 7 7 18 26 18 17 17 20 14 12 18 18 19 21 16 8 10 14 14
20 19 19 19 20 20 21 22 22 23 24 26 29 24 7 3 9 11 5 4 9 4 6 9 9 13 3 4 2 2 16 24 21 19 15 19 19 20 19 21 14 26 22 9 15 13 11
21 20 20 21 21 21 21 21 22 23 23 25 23 7 4 4 13 5 4 5 5 9 10 14 14 4 1 3 5 5 7 20 20 15 13 19 19 9 17 13 22 15 26 21 8 2 5
20 21 21 21 20 20 20 20 21 21 21 23 8 5 6 12 10 3 3 3 4 13 15 9 5 7 6 8 3 3 2 8 6 0 6 6 7 13 24 18 24 14 18 12 14 15 13
20 21 20 20 21 21 21 20 19 18 18 15 3 5 9 18 3 3 3 6 7 10 15 9 9 8 7 6 6 5 7 9 9 7 5 2 5 4 16 22 22 12 19 12 12 10 9
19 19 19 20 19 20 20 17 17 16 16 7 3 3 9 11 6 3 5 12 9 10 10 6 7 4 5 5 5 4 4 7 14 9 1 4 5 11 16 14 22 23 19 22 12 14 12
19 19 19 18 18 19 19 16 15 14 10 3 4 3 4 6 6 7 9 7 7 13 11 8 6 9 6 5 3 5 5 7 12 12 7 5 4 12 12 11 10 21 23 22 21 11 17
19 19 19 18 18 18 17 15 14 12 10 2 3 5 3 4 1 6 10 7 9 10 5 6 8 7 8 2 2 3 5 5 10 9 9 5 1 10 13 8 4 6 11 24 24 18 17
18 19 19 19 18 17 17 15 14 12 6 2 3 2 2 5 4 9 10 6 12 9 8 8 2 9 10 5 4 4 7 6 4 12 7 5 3 5 5 7 6 9 10 10 18 23 23
18 19 19 19 18 18 16 16 14 9 3 1 3 3 1 6 8 8 5 3 9 10 8 8 5 10 9 4 6 7 9 4 3 6 7 7 1 4 8 9 9 11 13 14 15 17 16
18 18 19 19 19 18 17 15 13 5 2 2 1 2 2 4 5 4 3 6 11 14 7 5 8 15 10 12 11 13 12 13 13 9 5 6 4 3 5 8 13 16 21 16 14 13 14
18 18 19 19 18 18 18 16 14 8 7 2 2 2 4 4 5 9 9 14 15 14 11 15 16 12 5 11 16 13 11 13 13 15 11 5 4 3 5 3 11 5 5 6 13 16 20
18 18 19 19 19 18 18 18 16 13 3 4 2 3 2 4 7 12 13 12 12 10 13 14 12 7 11 8 6 6 3 4 9 16 15 16 8 4 6 12 16 18 7 2 4 11 6
19 18 20 20 21 20 19 19 19 14 13 4 4 4 2 5 5 11 9 10 10 10 9 5 7 9 3 2 3 4 3 3 3 3 5 13 14 8 6 9 12 0 7 2 3 14 7
20 20 20 22 22 22 22 21 20 19 15 5 4 7 3 4 7 12 6 5 3 3 4 5 5 4 4 2 3 4 5 4 5 5 4 6 8 16 14 11 9 10 4 1 12 1 6
20 21 21 22 23 23 23 23 22 21 18 9 3 9 5 4 9 11 16 11 7 6 4 1 6 3 2 3 2 4 4 3 5 7 5 7 7 8 12 11 21 6 16 14 5 6 10
21 21 22 24 24 25 24 24 22 22 20 12 4 6 6 4 6 10 16 19 23 21 9 5 6 4 3 3 2 2 4 4 4 5 6 9 12 7 11 9 11 12 16 17 9 15 15
Wind_Direction
13 12 11 8 4 359 357 356 355 352 348 344 341 337 334 331 327 322 318 313 309 304 299 296 295 304 305 221 248 319 106 148 163 167 163 168 172 172 184 195 187 235 261 245 250 258 269
18 14 13 10 6 2 358 356 354 350 347 344 340 336 332 329 324 320 316 314 308 300 291 282 269 248 225 245 230 201 143 156 167 176 173 171 184 179 176 192 200 201 244 258 272 254 243
15 14 13 9 6 3 0 357 353 350 346 342 337 335 332 329 324 319 318 316 309 297 280 262 228 190 220 245 98 156 155 175 174 180 177 185 171 187 168 182 225 260 274 272 246 224 233
15 14 13 8 6 1 358 356 353 349 345 341 338 335 332 331 324 320 322 319 315 307 272 210 177 174 247 233 235 190 176 161 188 176 193 180 198 200 219 261 177 237 224 267 359 197 209
14 11 11 8 7 2 358 355 351 346 342 340 338 335 334 333 326 323 323 321 321 42 102 127 135 212 253 122 206 205 183 168 171 178 178 177 190 206 178 225 244 216 242 235 277 214 171
11 9 8 6 4 0 356 352 348 344 340 339 338 336 336 334 328 327 324 318 210 89 116 192 103 244 230 219 167 153 169 148 155 168 195 188 186 214 212 203 215 213 215 237 251 168 218
12 11 7 4 1 358 354 350 346 342 338 338 338 337 337 332 333 329 333 281 296 182 277 236 199 280 300 314 145 153 165 153 127 166 181 194 203 211 208 215 227 232 232 237 250 244 251
10 5 2 -0 358 355 351 348 343 341 337 338 340 338 337 331 333 326 325 58 61 300 300 251 244 255 263 319 214 153 166 170 187 191 183 173 223 211 207 201 217 224 233 236 253 269 272
6 3 1 359 357 353 350 346 342 339 335 335 340 339 333 334 328 11 345 79 4 328 256 283 221 229 220 188 234 180 179 185 190 194 194 206 209 199 198 200 212 225 227 229 242 306 225
4 0 359 356 354 350 347 345 343 340 336 334 340 341 333 337 328 338 68 331 334 276 274 256 220 244 169 157 234 204 192 175 190 204 197 221 204 192 201 215 206 226 220 234 235 242 250
1 359 356 353 351 348 345 343 343 340 335 335 338 338 330 343 298 329 310 329 320 179 285 100 140 145 154 189 48 195 188 203 196 181 177 200 200 189 210 210 201 226 204 211 230 236 253
358 355 353 351 350 346 344 343 342 339 334 334 335 334 330 353 258 277 305 307 197 223 243 66 99 163 168 221 246 120 186 212 180 187 214 206 207 195 201 208 201 198 172 176 193 231 238
356 353 349 347 346 342 341 339 340 339 335 334 333 328 329 311 329 328 314 273 200 235 349 20 1 351 329 249 222 181 191 191 187 183 193 202 193 194 196 187 198 201 182 180 207 215 237
354 350 346 344 343 341 339 341 340 339 338 335 331 321 330 253 303 322 304 234 228 14 347 351 334 306 231 342 194 249 193 194 205 206 181 194 205 195 187 201 185 199 199 207 216 236 235
352 348 346 345 342 340 338 339 338 338 338 334 325 340 331 339 323 313 295 241 360 22 344 329 317 295 299 11 330 330 196 210 203 207 211 201 216 189 181 183 184 182 210 210 245 143 252
350 348 346 343 341 338 337 338 337 338 337 335 330 343 322 334 336 302 272 300 332 16 337 328 327 359 342 356 350 6 69 5 256 302 301 180 206 197 196 187 198 192 169 178 212 223 234
346 344 341 340 342 342 341 339 338 339 338 336 3 348 1 338 293 22 33 325 309 345 351 322 331 314 327 342 333 21 25 56 357 326 342 250 239 139 176 202 181 181 190 200 198 225 224
342 341 342 346 348 345 344 343 339 341 342 33 349 353 356 336 39 4 351 320 298 331 344 316 307 309 306 329 328 38 82 31 353 333 356 30 254 214 206 193 214 202 197 198 202 194 234
344 342 342 345 344 346 351 349 343 344 13 330 1 296 341 339 40 354 337 306 315 346 343 350 327 1 348 334 308 45 38 21 7 19 23 353 229 197 225 209 203 218 212 206 216 230 209
343 344 343 341 344 346 348 353 347 344 357 355 348 342 347 39 71 345 338 322 330 341 9 337 330 354 342 329 16 29 15 9 343 9 352 305 21 262 225 227 12 222 218 211 220 227 227
340 341 339 341 344 344 344 348 348 344 5 344 0 37 12 317 334 324 321 301 314 351 344 337 39 17 359 294 306 8 13 340 15 1 3 12 27 336 317 308 290 263 254 241 234 236 234
337 337 335 336 337 341 342 342 342 350 17 349 323 317 296 288 292 300 322 296 310 336 323 318 4 353 349 306 21 333 348 0 5 351 5 350 318 334 306 305 290 277 255 250 246 245 256
332 332 330 330 331 331 334 335 339 359 72 308 311 257 216 267 290 287 308 323 309 327 298 310 325 319 312 291 324 311 289 274 275 298 315 316 297 261 263 326 319 268 242 244 247 240 243
328 327 325 325 323 323 325 324 326 337 194 221 231 270 254 270 251 273 277 296 299 305 298 299 309 284 295 316 304 282 254 257 260 251 230 251 238 237 265 286 243 265 360 277 265 249 232
322 322 320 318 315 315 314 313 311 312 272 202 206 230 248 259 268 277 275 285 297 293 293 287 294 269 311 290 292 298 209 231 226 235 216 218 226 232 232 225 283 292 266 285 272 249 299
315 315 314 312 311 312 309 303 299 295 293 189 217 205 244 280 233 265 285 294 288 295 292 276 311 312 242 264 247 271 274 329 254 238 221 206 225 238 195 238 237 132 242 264 171 263 147
311 310 309 306 308 309 306 304 298 291 282 252 197 188 212 251 258 260 248 266 240 252 268 298 346 332 334 238 223 230 255 308 253 252 155 169 205 217 228 248 255 265 262 108 216 122 324
307 306 306 301 305 305 305 304 301 293 281 270 215 179 202 242 267 252 261 237 244 225 238 314 317 151 256 235 264 237 245 248 280 261 262 212 198 202 225 241 241 247 253 242 351 320 313
305 304 303 302 302 303 306 304 301 293 288 264 242 181 201 227 262 279 265 254 247 242 245 212 230 186 191 229 230 280 241 232 263 272 243 245 227 230 227 229 264 303 302 291 304 294 303